Volver al catálogo

ONEWEB-0357

ActivoComunicacionesPO
NORAD 49219·PAYLOAD·🇬🇧 United Kingdom

Lanzado Sep 14, 2021 desde Baikonur Cosmodrome

Loading…

Próximos Pases (próximas 24 horas)

TLE

ActualizadoSource: CelesTrak SupGP

Época: Sep 14, 2026, 16:22 UTC

1 49219C 21083AK  26257.68211065 -.00001139  00000+0 -28048-2 0  2576
2 49219  87.9145 256.5800 0001784  87.6445 307.0338 13.20771866    17

Sigue ONEWEB-0357 en tiempo real con AllMySat

Download on the App Store